STARLINK-4166, 53291

Orbit data source: Space-Track

STARLINK-4166, 53291 is a payload satellite owned by SpaceX/Seattle (US) in LEO that was launched on Sun, 24 Jul 2022 UTC via an FALCON 9 launch vehicle from the Air Force Eastern Test Range (AFETR). Payload-class satellites include a variety of spacecraft equipped with specific instruments for various scientific and technological missions. These include communications satellites like Starlink; space stations such as the ISS; scientific satellites like the Hubble; Earth observation satellites from companies like Planet Labs, Umbra, and HawkEye 360; GPS; miniature CubeSats for education and research; and military/defense satellites.

Loading next visibility...
Identifier
53291, 2022-086BB
Orbit
LEO
Country
Flag of USUS
Related business
Manufacturer
SpaceX/Seattle
Mission
Operational Commercial Communications
Bus & Motor
STARLINK, Unknown motor
Mass
297 kg wet, ~275 kg dry
Launch date (UTC)
2022-07-24 (4 years ago)
Launch vehicle
FALCON 9
Launch site
Air Force Eastern Test Range (AFETR)
Object type
Payload
Rocket body
Debris
Shape & HBR
Box + 1 Pan, 10.1 m
Radar Cross Section
13.562 m², Large (>1 m²)

Expand to show TLE details & history
Last TLE update: 2 days ago

TLE from 2 days ago
0 STARLINK-4166
1 53291U 22086BB  26170.93597141  .00000590  00000-0  55172-4 0  9991
2 53291  53.1614  79.7992 0001402  91.5246 268.5906 15.08833576216695
Epoch: 2026-06-19T22:27Z
TLE epoch observation values (Epoch: 2026-06-19T22:27:47.929Z)
Latitude
-0.00004°
Longitude
-165.30834°
Altitude
540.679 km
Speed
7.593 km/s
True Right ascension
05h 19m 11s
True Declination
0° 00' 00"
Sunlit
Object was in daylight at epoch
Visualization orbit readout
Latitude
Unknown
Longitude
Unknown
Altitude
Unknown
Speed
Unknown
Apparent Right ascension
Unknown
Apparent Declination
Unknown
Sunlit
N/A
Visualization observer readout
Local Sidereal Time
21:26:34
Azimuth
Unknown
Elevation
Unknown
Doppler factor
Unknown
Orbital elements
Apogee altitude
540.987 km
Perigee altitude
539.047 km
Semi-major axis
6,918.154 km
Eccentricity
0.00014
Inclination
53.1614°
RAAN
79.7992°
Arg. of periapsis
91.5246°
True anomaly
268.57454°
Mean anomaly
268.5906°
Eccentric anomaly
268.58257°
Mean motion
3.77188 °/min
Orbital period
95.44 mins
BSTAR
0.000055172
Loading maneuver chart data...
Computing Atmospheric mass density...
Loading historical data...
Loading historical data...
Loading historical data...
Loading historical data...
Loading historical data...
Loading historical data...
Loading historical data...

Documentation

Showing up to 5 results
|